Vorticity
-9 18 6 2 3 3 4 6 -1 2 -4 -1 8 5 -5 18 2 6 11 16 10 5 17 5 4 -4 12 10 5 2 1 8 3 -3 2 11 6 -2 1 7 15 5 2 8
-19 13 18 10 -2 12 16 -4 7 5 7 -15 9 -2 4 18 7 8 11 9 5 5 -4 -1 9 5 6 18 10 6 9 0 -0 -3 0 1 2 9 -0 1 -1 -1 1 8
29 11 -3 9 20 5 4 11 2 3 -2 3 1 0 15 15 0 -3 20 10 11 5 1 -3 -1 9 9 11 13 4 -2 -1 11 18 6 2 15 2 1 4 7 10 6 15
11 18 26 0 -4 7 10 -3 5 -6 -4 8 6 -0 1 15 8 6 8 14 9 5 -6 9 1 14 10 9 -2 5 7 4 0 6 11 7 4 7 10 9 7 8 11 6
11 16 7 28 17 -3 4 17 25 20 1 21 14 10 10 4 20 17 -1 -3 6 12 -4 13 2 13 16 5 11 2 7 6 -3 9 0 1 10 8 7 5 5 3 6 11
23 65 43 6 44 13 -4 16 -2 27 15 19 20 21 14 9 22 4 8 13 9 6 16 16 30 17 10 7 6 7 8 1 1 3 9 10 7 4 4 7 12 18 17 13
42 -8 -8 22 13 -2 -3 -11 -1 2 7 10 7 10 6 6 -14 -5 8 2 2 16 18 12 9 5 7 12 12 4 2 5 14 10 7 2 4 17 16 17 14 14 19 22
-4 37 22 -7 22 42 12 26 -0 3 12 17 9 6 2 -14 9 1 10 11 16 12 3 -1 0 7 8 8 4 3 7 10 10 7 7 12 15 16 17 9 21 22 19 34
-15 -26 34 -7 -24 26 28 3 27 6 8 12 -7 30 5 38 34 10 -1 13 12 9 7 10 -1 19 10 -1 2 5 8 4 3 19 14 12 22 14 22 10 28 40 28 27
-15 -27 -32 -23 -9 16 -24 27 24 38 30 -2 -14 24 -2 -14 9 17 13 9 8 7 4 8 9 9 8 6 2 8 8 16 14 14 15 19 23 31 36 50 48 42 45 32
-3 27 28 10 27 24 11 -29 13 -20 -2 44 24 16 4 2 24 15 6 3 7 9 12 11 7 6 7 11 7 13 15 15 14 18 20 26 45 24 45 32 12 4 9 8
-5 12 14 -6 -0 1 -0 -2 4 -11 8 22 15 -6 5 23 4 2 8 9 11 21 8 7 7 9 7 12 17 16 17 14 11 18 20 32 26 14 12 8 4 5 5 5
29 -5 -6 38 33 21 19 25 18 -4 20 -4 -6 17 14 4 5 14 10 13 3 10 12 11 6 15 17 11 14 16 15 15 21 41 29 15 8 9 6 4 1 4 8 8
8 23 21 1 14 10 -0 4 15 17 15 14 10 6 -1 4 17 19 2 2 7 6 5 14 12 12 16 16 12 13 18 21 22 30 13 8 4 3 6 7 3 2 3 10
23 19 -1 -14 -11 33 18 15 9 4 8 8 2 11 15 12 6 2 3 5 9 16 14 9 10 17 13 19 17 14 26 18 19 14 10 7 1 3 6 10 11 7 7 8
-18 26 12 10 15 27 25 14 10 12 0 3 9 13 8 5 6 9 15 17 14 10 12 12 13 12 22 22 21 10 17 15 8 9 6 3 6 8 4 10 11 13 10 8
0 52 34 5 -3 3 8 19 10 13 14 12 15 5 7 6 11 17 15 12 10 11 12 10 13 17 20 18 13 10 10 14 10 11 11 9 7 5 8 9 6 5 4 5
-3 -12 -32 1 0 -33 11 12 3 6 10 4 9 13 20 16 11 10 8 10 10 8 10 13 19 16 10 11 4 13 11 10 6 3 5 7 6 4 4 4 6 5 5 5
-3 9 -6 -3 1 12 4 9 17 15 11 10 14 11 11 13 10 10 14 8 13 12 16 15 13 14 12 5 12 10 10 11 10 8 7 6 7 7 7 7 7 7 7 7
-18 23 -28 -12 2 11 13 16 13 13 11 17 12 11 12 17 10 8 15 19 12 11 12 11 12 16 12 12 12 15 15 15 16 17 16 14 10 10 14 12 11 9 7 7
-8 -5 5 16 15 15 18 18 18 13 14 9 6 6 8 8 18 15 13 10 9 10 11 10 13 15 9 19 19 18 21 22 21 18 18 22 17 14 10 13 17 9 15 13
25 9 15 15 24 25 11 10 9 4 4 7 10 16 17 13 9 10 10 8 11 9 10 10 7 7 11 9 9 11 12 13 15 16 18 21 8 8 2 7 1 -5 -1 2
16 35 24 9 -2 7 4 4 4 13 18 16 13 10 9 12 11 11 10 11 8 9 9 9 6 8 7 7 11 13 11 13 16 16 12 10 10 5 6 11 -9 -14 7 16
9 4 5 2 5 5 14 24 17 14 14 13 12 14 12 12 11 11 10 10 9 10 7 7 7 9 9 10 11 11 11 10 10 12 12 13 13 11 12 17 17 10 5 1
2 7 12 18 18 13 12 17 15 13 11 10 11 10 10 10 9 9 9 9 8 8 9 9 9 8 8 9 10 11 12 13 14 14 14 13 12 12 12 11 10 9 8 10
13 11 12 11 10 11 9 8 9 10 11 10 10 9 9 9 9 10 9 11 11 8 8 8 8 9 10 11 12 13 14 14 14 14 14 13 13 12 12 11 11 11 12 11
13 12 9 10 10 10 13 12 10 11 11 11 9 10 11 9 13 11 13 9 8 7 7 7 6 6 8 10 14 15 14 16 17 17 18 18 17 16 14 14 14 14 14 15
Height
5598 5608 5621 5630 5639 5649 5656 5663 5670 5682 5684 5688 5688 5690 5696 5701 5705 5706 5705 5704 5707 5708 5707 5704 5702 5703 5699 5698 5696 5693 5690 5685 5683 5681 5677 5674 5668 5662 5655 5644 5639 5629 5621 5615
5589 5600 5608 5615 5627 5637 5647 5653 5659 5669 5673 5673 5677 5682 5687 5691 5692 5696 5695 5694 5696 5698 5697 5694 5690 5690 5689 5688 5686 5681 5678 5673 5670 5669 5666 5659 5653 5649 5639 5631 5623 5617 5606 5598
5577 5588 5597 5606 5617 5627 5636 5642 5648 5654 5660 5663 5669 5673 5677 5681 5683 5684 5685 5686 5687 5688 5688 5684 5680 5677 5675 5674 5672 5669 5665 5661 5660 5656 5654 5648 5640 5632 5624 5616 5605 5599 5587 5582
5569 5579 5590 5601 5608 5617 5625 5629 5636 5643 5650 5656 5662 5664 5669 5671 5674 5674 5674 5675 5679 5678 5675 5672 5670 5667 5665 5662 5659 5657 5653 5649 5647 5643 5638 5631 5624 5617 5609 5601 5590 5578 5573 5559
5563 5573 5585 5590 5600 5608 5613 5622 5627 5635 5642 5648 5651 5654 5660 5662 5663 5664 5665 5665 5667 5666 5664 5662 5658 5656 5654 5651 5648 5644 5640 5635 5631 5627 5621 5615 5608 5599 5592 5584 5576 5562 5550 5539
5553 5564 5575 5588 5591 5599 5606 5613 5623 5624 5632 5637 5640 5644 5650 5651 5652 5653 5655 5655 5654 5654 5652 5650 5647 5645 5642 5640 5636 5632 5628 5622 5617 5612 5607 5598 5590 5584 5572 5565 5555 5538 5526 5516
5545 5559 5571 5581 5586 5593 5601 5607 5612 5618 5624 5627 5632 5634 5637 5640 5640 5642 5643 5644 5642 5642 5639 5637 5635 5633 5630 5627 5624 5619 5613 5607 5599 5593 5587 5583 5571 5561 5554 5542 5532 5517 5506 5496
5538 5552 5563 5573 5580 5588 5593 5597 5603 5610 5614 5618 5621 5625 5626 5628 5631 5632 5631 5632 5631 5628 5627 5625 5622 5621 5617 5615 5611 5606 5600 5591 5581 5573 5569 5563 5554 5546 5533 5523 5521 5507 5494 5483
5532 5543 5556 5565 5576 5582 5586 5591 5595 5600 5603 5607 5611 5612 5618 5618 5620 5621 5620 5619 5617 5616 5614 5611 5608 5606 5603 5599 5597 5592 5584 5575 5568 5558 5546 5539 5537 5525 5515 5502 5501 5489 5479 5473
5525 5537 5548 5558 5567 5575 5578 5583 5588 5589 5593 5598 5602 5604 5608 5608 5608 5609 5609 5608 5605 5603 5602 5599 5597 5594 5591 5585 5580 5575 5567 5559 5551 5538 5529 5525 5515 5508 5501 5497 5492 5478 5472 5466
5518 5530 5542 5552 5559 5565 5570 5576 5579 5585 5586 5588 5592 5595 5596 5597 5597 5598 5598 5596 5594 5591 5589 5587 5584 5580 5576 5570 5564 5557 5552 5545 5538 5529 5519 5515 5507 5501 5496 5489 5483 5478 5472 5467
5512 5524 5533 5545 5552 5558 5561 5567 5572 5575 5577 5581 5583 5585 5586 5586 5586 5587 5585 5584 5581 5579 5576 5574 5570 5565 5560 5555 5550 5542 5539 5532 5527 5520 5512 5505 5501 5496 5491 5487 5483 5476 5472 5468
5510 5519 5526 5537 5541 5548 5555 5559 5564 5568 5570 5570 5573 5574 5575 5576 5576 5576 5575 5573 5571 5568 5565 5560 5557 5551 5547 5542 5537 5530 5525 5519 5513 5508 5502 5499 5496 5492 5490 5486 5479 5475 5471 5466
5505 5513 5523 5529 5535 5541 5547 5551 5555 5558 5559 5559 5562 5562 5564 5565 5566 5565 5564 5560 5558 5555 5552 5547 5542 5538 5534 5527 5522 5517 5512 5507 5506 5502 5498 5493 5491 5488 5481 5479 5476 5473 5469 5465
5501 5508 5516 5523 5529 5534 5537 5542 5546 5548 5552 5551 5552 5553 5555 5556 5556 5554 5551 5548 5545 5542 5538 5533 5531 5527 5523 5516 5509 5504 5503 5500 5498 5497 5494 5492 5486 5480 5476 5473 5471 5469 5465 5461
5495 5503 5510 5517 5521 5526 5531 5535 5538 5540 5542 5543 5544 5545 5546 5546 5544 5542 5539 5535 5532 5530 5526 5522 5518 5515 5512 5508 5502 5497 5497 5494 5490 5490 5487 5485 5480 5475 5471 5468 5466 5463 5460 5457
5490 5498 5504 5509 5514 5518 5524 5528 5530 5532 5534 5535 5536 5536 5537 5535 5532 5530 5527 5524 5523 5519 5515 5512 5508 5504 5502 5499 5495 5492 5489 5487 5485 5482 5479 5476 5472 5469 5465 5462 5459 5456 5454 5451
5487 5494 5499 5503 5508 5512 5516 5518 5521 5522 5523 5526 5527 5527 5527 5525 5523 5521 5517 5516 5512 5507 5504 5501 5499 5496 5492 5490 5485 5485 5482 5480 5475 5471 5468 5466 5464 5461 5458 5454 5451 5448 5445 5443
5487 5491 5496 5500 5504 5505 5509 5511 5513 5514 5518 5519 5518 5517 5516 5517 5515 5511 5509 5507 5504 5501 5498 5494 5491 5488 5485 5481 5479 5476 5471 5468 5464 5458 5456 5454 5453 5450 5447 5443 5439 5437 5434 5432
5484 5490 5495 5496 5499 5502 5504 5505 5506 5507 5510 5511 5509 5509 5508 5509 5505 5500 5502 5498 5497 5494 5493 5488 5484 5481 5476 5472 5469 5465 5460 5456 5452 5448 5445 5442 5439 5435 5432 5429 5427 5424 5422 5419
5480 5484 5489 5491 5493 5495 5497 5498 5501 5500 5501 5502 5501 5500 5499 5498 5498 5497 5496 5492 5489 5488 5487 5483 5480 5473 5465 5463 5458 5454 5451 5447 5442 5437 5432 5428 5425 5422 5419 5416 5414 5411 5408 5406
5479 5482 5482 5484 5486 5487 5493 5492 5493 5495 5496 5496 5494 5494 5492 5492 5492 5491 5488 5487 5484 5482 5481 5475 5471 5465 5456 5452 5448 5445 5441 5437 5432 5426 5421 5417 5413 5410 5406 5402 5399 5395 5393 5390
5472 5474 5477 5479 5482 5485 5487 5489 5487 5489 5490 5489 5489 5489 5488 5488 5488 5487 5485 5483 5479 5475 5471 5466 5462 5455 5448 5444 5439 5434 5429 5425 5420 5415 5410 5405 5400 5396 5391 5387 5382 5378 5375 5370
5471 5473 5476 5479 5478 5481 5482 5481 5484 5487 5487 5486 5486 5486 5487 5486 5485 5481 5478 5475 5472 5468 5464 5458 5453 5447 5440 5433 5427 5421 5415 5409 5404 5399 5394 5389 5383 5379 5374 5368 5363 5358 5353 5348
5469 5471 5472 5473 5473 5476 5478 5482 5481 5482 5482 5479 5479 5482 5482 5479 5477 5475 5472 5470 5465 5461 5456 5450 5443 5436 5428 5421 5414 5407 5400 5394 5387 5381 5375 5369 5364 5359 5354 5348 5342 5337 5333 5328
5466 5468 5469 5471 5474 5476 5477 5478 5478 5478 5477 5478 5480 5479 5477 5475 5474 5472 5467 5465 5460 5455 5447 5440 5433 5425 5416 5408 5400 5391 5383 5376 5368 5361 5355 5348 5342 5336 5331 5326 5320 5315 5309 5304
5467 5469 5470 5472 5473 5475 5476 5478 5478 5478 5479 5479 5477 5475 5474 5472 5469 5466 5463 5458 5452 5446 5438 5430 5422 5413 5404 5394 5385 5375 5366 5357 5348 5340 5333 5326 5319 5312 5306 5300 5295 5289 5283 5278